Location: Clinton NY
(43.0598°N, 75.3602°W)
Time: 09:04:14
(UTC-04:00)

ISS - All Passes

Search period start: 26 April 2015 00:00
Search period end: 06 May 2015 00:00
Orbit: 395 x 402 km, 51.6° (Epoch: 26 April)

Date Brightness Start Highest point End Pass type
(mag) Time Alt. Az. Time Alt. Az. Time Alt. Az.
26 Apr - 10:57:54 10° SE 10:58:21 10° SE 10:58:57 10° ESE daylight
26 Apr - 12:31:00 10° SW 12:34:15 83° SSE 12:37:32 10° ENE daylight
26 Apr - 14:08:12 10° WNW 14:10:56 24° NNW 14:13:39 10° NE daylight
26 Apr - 15:45:43 10° NW 15:48:04 18° N 15:50:26 10° NE daylight
26 Apr - 17:21:59 10° NW 17:25:05 38° NNE 17:28:08 10° E daylight
26 Apr - 18:58:26 10° WNW 19:01:23 32° SW 19:04:19 10° SSE daylight
27 Apr - 11:37:06 10° SSW 11:40:11 42° SE 11:43:17 10° ENE daylight
27 Apr - 13:13:37 10° W 13:16:36 32° NNW 13:19:36 10° NE daylight
27 Apr - 14:51:19 10° NW 14:53:39 18° N 14:55:59 10° NE daylight
27 Apr - 16:27:56 10° NW 16:30:46 26° NNE 16:33:36 10° ENE daylight
27 Apr - 18:04:06 10° WNW 18:07:20 63° SW 18:10:33 10° SE daylight
28 Apr - 10:43:35 10° S 10:46:08 22° SE 10:48:44 10° E daylight
28 Apr - 12:19:07 10° WSW 12:22:17 50° NNW 12:25:29 10° NE daylight
28 Apr - 13:56:44 10° WNW 13:59:12 19° N 14:01:39 10° NE daylight
28 Apr - 15:33:47 10° NW 15:36:21 21° NNE 15:38:56 10° ENE daylight
28 Apr - 17:09:53 10° NW 17:13:09 69° NNE 17:16:23 10° ESE daylight
28 Apr - 18:47:08 10° W 18:49:10 15° SW 18:51:08 10° S daylight
29 Apr - 09:51:03 10° SSE 09:52:06 11° SE 09:53:17 10° ESE daylight
29 Apr - 11:24:47 10° SW 11:28:02 89° NW 11:31:18 10° ENE daylight
29 Apr - 13:02:02 10° WNW 13:04:43 23° NNW 13:07:24 10° NE daylight
29 Apr - 14:39:29 10° NW 14:41:52 18° N 14:44:15 10° NE daylight
29 Apr - 16:15:43 10° NW 16:18:50 40° NNE 16:21:56 10° E daylight
29 Apr - 17:52:13 10° WNW 17:55:06 29° SW 17:57:57 10° SSE daylight
30 Apr - 10:30:41 10° SW 10:33:48 46° SE 10:36:57 10° ENE daylight
30 Apr - 12:07:18 10° W 12:10:15 30° NNW 12:13:12 10° NE daylight
30 Apr - 13:45:00 10° NW 13:47:18 18° N 13:49:38 10° NE daylight
30 Apr - 15:21:32 10° NW 15:24:24 28° NNE 15:27:16 10° E daylight
30 Apr - 16:57:43 10° WNW 17:00:55 57° SW 17:04:07 10° SE daylight
01 May - 09:36:58 10° SSW 09:39:37 24° SE 09:42:19 10° E daylight
01 May - 11:12:40 10° WSW 11:15:48 46° NNW 11:18:58 10° NE daylight
01 May - 12:50:18 10° NW 12:52:43 19° N 12:55:08 10° NE daylight
01 May - 14:27:16 10° NW 14:29:52 21° NNE 14:32:28 10° ENE daylight
01 May - 16:03:21 10° NW 16:06:37 75° NNE 16:09:52 10° ESE daylight
01 May - 17:40:47 10° W 17:42:37 14° SW 17:44:21 10° SSW daylight
02 May - 08:44:04 10° SSE 08:45:27 12° SE 08:46:57 10° ESE daylight
02 May - 10:18:09 10° WSW 10:21:24 83° NNW 10:24:40 10° NE daylight
02 May - 11:55:27 10° WNW 11:58:06 22° NNW 12:00:45 10° NE daylight
02 May - 13:32:52 10° NW 13:35:15 19° N 13:37:38 10° NE daylight
02 May - 15:09:03 10° NW 15:12:11 43° NNE 15:15:18 10° E daylight
02 May - 16:45:37 10° WNW 16:48:25 26° SW 16:51:11 10° SSE daylight
03 May - 09:23:53 10° SW 09:27:01 50° SE 09:30:12 10° ENE daylight
03 May - 11:00:36 10° W 11:03:30 29° NNW 11:06:24 10° NE daylight
03 May - 12:38:15 10° NW 12:40:34 18° N 12:42:52 10° NE daylight
03 May - 14:14:44 10° NW 14:17:38 29° NNE 14:20:31 10° E daylight
03 May - 15:50:56 10° WNW 15:54:06 52° SW 15:57:16 10° SE daylight
04 May - 08:29:58 10° SSW 08:32:42 26° SE 08:35:28 10° ENE daylight
04 May - 10:05:47 10° W 10:08:54 44° NNW 10:12:02 10° NE daylight
04 May - 11:43:26 10° NW 11:45:50 19° N 11:48:13 10° NE daylight
04 May - 13:20:20 10° NW 13:22:58 22° NNE 13:25:36 10° ENE daylight
04 May - 14:56:25 10° NW 14:59:41 80° NE 15:02:55 10° ESE daylight
04 May - 16:34:02 10° WSW 16:35:38 13° SW 16:37:08 10° SSW daylight
05 May - 07:36:45 10° SSE 07:38:23 13° SE 07:40:06 10° E daylight
05 May - 09:11:07 10° WSW 09:14:21 77° NW 09:17:36 10° NE daylight
05 May - 10:48:29 10° WNW 10:51:05 22° NNW 10:53:40 10° NE daylight
05 May - 12:25:49 10° NW 12:28:13 19° N 12:30:37 10° NE daylight
05 May - 14:01:58 10° NW 14:05:08 45° NNE 14:08:15 10° ESE daylight
05 May - 15:38:35 10° W 15:41:19 24° SW 15:44:00 10° SSE daylight
